Погода в Александровском

Россия / Томская область     60°25′34″N   77°52′06″E
темп.,
°C
ветер,
м/с
пор.,
м/с
влажн.,
%
обл.,
%
осадки,
мм/ч
давл.,
гПа
погр.,
м
19 сентября, вс
вс1901:00+4ююз6128881 0.4 997857
04:00+4ю61386100 0.1 996831
07:00+2ю6138913 0.1 996676
10:00+4ю6128033 0.0 9951011
13:00+7ююз61163100 0.2 9961673
16:00+6юз5876100 0.3 9971098
19:00+4юз3683100 0.3 998603
22:00+2ю1398100 0.1 999324
20 сентября, пн
пн2001:00+2юв1299100 0.4 999316
04:00+2св1199100 0.5 1000320
07:00+2с1399100 1.1 1001218
10:00+2сз25100100 1.8 1002322
13:00+2ссз2899100 4.0 1003538
16:00+5ссв3895100 2.1 1005804
19:00+6ссз4984100 2.6 1007462
22:00+4ссз6119398 0.3 1008784
21 сентября, вт
вт2101:00+3ссз61089100 0.3 1010905
04:00+2ссз61090100 0.1 1011735
07:00+1ссз5118683 0.1 1012676
10:00+1ссз6108124 0.0 1013867
13:00+3сз4789100 0.2 1013711
16:00+4сз5777100 0.4 1014991
19:00+3сз4773100 0.6 1015438
22:00+2сз4881100 0.0 1015435
22 сентября, ср
ср2201:00+2зсз3698100 0.1 1015266
04:00+2зсз3699100 0.8 1014301
07:00+1зсз3599100 1.4 1014277
10:00+1сз2499100 0.9 1014270
13:00+2сз2595100 1.6 1015381
16:00+2ссз4590100 1.0 1015626
19:00+2ссз358798 1.9 1016329
22:00−1ссз379454 0.1 1018151
23 сентября, чт
чт2301:00−2с35945 0.1 1019105
04:00−3с259434 0.0 102098
07:00−3с25945 0.0 102196
10:000с34815 0.0 1023288
13:00+4с34656 0.0 1024944
16:00+3ссз4679100 0.0 1025650
19:00+3ссз3678100 0.0 1026488
22:00+2сз3781100 0.0 1027381